Previsão horária em Barrancas

Hoje, 20 Outubro, Terça-feira

Tempo Temperatura Precipitação Vento Pressão Humidade
00:00 +28°C° 0.2 mm 3 m/s 755 mmHg 84%
01:00 +28°C° 0 mm 2 m/s 755 mmHg 86%
02:00 +27°C° 0.3 mm 2 m/s 755 mmHg 87%
03:00 +27°C° 0.3 mm 2 m/s 755 mmHg 88%
04:00 +27°C° 0.3 mm 2 m/s 755 mmHg 90%
05:00 +27°C° 0.1 mm 2 m/s 755 mmHg 89%
06:00 +28°C° 0.1 mm 1 m/s 756 mmHg 88%
07:00 +28°C° 0 mm 1 m/s 756 mmHg 87%
08:00 +29°C° 0.8 mm 1 m/s 756 mmHg 83%
09:00 +30°C° 0.8 mm 1 m/s 756 mmHg 79%
10:00 +31°C° 0.8 mm 1 m/s 757 mmHg 75%
11:00 +32°C° 0.1 mm 1 m/s 756 mmHg 73%
12:00 +32°C° 0.1 mm 1 m/s 755 mmHg 71%
13:00 +32°C° 0.1 mm 1 m/s 754 mmHg 69%
14:00 +32°C° 0.1 mm 1 m/s 754 mmHg 68%
15:00 +32°C° 0.1 mm 2 m/s 753 mmHg 67%
16:00 +32°C° 0.1 mm 2 m/s 753 mmHg 65%
17:00 +31°C° 0 mm 3 m/s 754 mmHg 70%
18:00 +30°C° 0 mm 3 m/s 754 mmHg 75%
19:00 +28°C° 0 mm 3 m/s 755 mmHg 79%
20:00 +28°C° 0.1 mm 3 m/s 755 mmHg 81%
21:00 +28°C° 0.1 mm 3 m/s 756 mmHg 82%
22:00 +28°C° 0.1 mm 3 m/s 757 mmHg 83%
23:00 +27°C° 0.4 mm 2 m/s 756 mmHg 85%

Amanhã, 21 Outubro, Quarta-feira

Tempo Temperatura Precipitação Vento Pressão Humidade
00:00 +27°C° 0.4 mm 2 m/s 756 mmHg 87%
01:00 +27°C° 0.4 mm 2 m/s 756 mmHg 89%
02:00 +27°C° 1 mm 2 m/s 756 mmHg 90%
03:00 +26°C° 1 mm 1 m/s 756 mmHg 90%
04:00 +26°C° 1 mm 1 m/s 756 mmHg 91%
05:00 +27°C° 0.4 mm 2 m/s 756 mmHg 90%
06:00 +27°C° 0.4 mm 2 m/s 757 mmHg 88%
07:00 +27°C° 0.4 mm 2 m/s 757 mmHg 87%
08:00 +29°C° 0 mm 2 m/s 757 mmHg 81%
09:00 +31°C° 0 mm 2 m/s 757 mmHg 74%
10:00 +32°C° 0 mm 2 m/s 757 mmHg 67%
11:00 +34°C° 0 mm 2 m/s 756 mmHg 66%
12:00 +34°C° 0 mm 2 m/s 756 mmHg 64%
13:00 +35°C° 0 mm 2 m/s 755 mmHg 63%
14:00 +34°C° 0 mm 2 m/s 754 mmHg 63%
15:00 +33°C° 0 mm 1 m/s 754 mmHg 64%
16:00 +33°C° 0 mm 1 m/s 754 mmHg 65%
17:00 +32°C° 0.4 mm 2 m/s 754 mmHg 72%
18:00 +30°C° 0.4 mm 2 m/s 755 mmHg 78%
19:00 +29°C° 0.4 mm 3 m/s 755 mmHg 84%
20:00 +29°C° 0.9 mm 3 m/s 756 mmHg 85%
21:00 +28°C° 0.9 mm 3 m/s 756 mmHg 85%
22:00 +28°C° 0.9 mm 3 m/s 756 mmHg 86%
23:00 +28°C° 0.1 mm 3 m/s 756 mmHg 86%

Depois de amanhã, 22 Outubro, Quinta-feira

Tempo Temperatura Precipitação Vento Pressão Humidade
00:00 +28°C° 0.1 mm 2 m/s 756 mmHg 87%
01:00 +28°C° 0.1 mm 2 m/s 755 mmHg 87%
02:00 +28°C° 0 mm 1 m/s 755 mmHg 88%
03:00 +27°C° 0 mm 1 m/s 755 mmHg 89%
04:00 +27°C° 0 mm 1 m/s 755 mmHg 89%
05:00 +28°C° 0.2 mm 2 m/s 755 mmHg 88%
06:00 +28°C° 0.2 mm 2 m/s 756 mmHg 87%
07:00 +28°C° 0.2 mm 3 m/s 756 mmHg 86%
08:00 +30°C° 0.6 mm 2 m/s 756 mmHg 81%
09:00 +31°C° 0.6 mm 2 m/s 757 mmHg 75%
10:00 +34°C° 0.6 mm 2 m/s 757 mmHg 69%
11:00 +34°C° 0.1 mm 2 m/s 756 mmHg 67%
12:00 +34°C° 0.1 mm 2 m/s 755 mmHg 66%
13:00 +34°C° 0.1 mm 1 m/s 754 mmHg 64%
14:00 +34°C° 0.1 mm 1 m/s 754 mmHg 64%
15:00 +35°C° 0.1 mm 2 m/s 754 mmHg 64%
16:00 +35°C° 0.1 mm 2 m/s 754 mmHg 64%
17:00 +34°C° 0.1 mm 2 m/s 754 mmHg 69%
18:00 +31°C° 0.1 mm 3 m/s 755 mmHg 74%
19:00 +30°C° 0.1 mm 4 m/s 755 mmHg 79%
20:00 +30°C° 0.2 mm 4 m/s 756 mmHg 80%
21:00 +30°C° 0.2 mm 4 m/s 756 mmHg 80%
22:00 +29°C° 0.2 mm 4 m/s 756 mmHg 81%
23:00 +29°C° 0.1 mm 3 m/s 756 mmHg 83%

23 Outubro, Sexta-feira

Tempo Temperatura Precipitação Vento Pressão Humidade
00:00 +29°C° 0.1 mm 3 m/s 756 mmHg 85%
01:00 +28°C° 0.1 mm 2 m/s 756 mmHg 86%
02:00 +28°C° 0.5 mm 2 m/s 756 mmHg 87%
03:00 +28°C° 0.5 mm 2 m/s 755 mmHg 87%
04:00 +27°C° 0.5 mm 2 m/s 755 mmHg 87%
05:00 +28°C° 0.5 mm 2 m/s 756 mmHg 87%
06:00 +28°C° 0.5 mm 3 m/s 756 mmHg 87%
07:00 +28°C° 0.5 mm 3 m/s 757 mmHg 87%
08:00 +29°C° 0 mm 3 m/s 757 mmHg 80%
09:00 +31°C° 0 mm 3 m/s 757 mmHg 74%
10:00 +33°C° 0 mm 3 m/s 757 mmHg 67%
11:00 +34°C° 0 mm 2 m/s 756 mmHg 64%
12:00 +35°C° 0 mm 2 m/s 755 mmHg 61%
13:00 +34°C° 0 mm 1 m/s 754 mmHg 58%
14:00 +34°C° 0.1 mm 1 m/s 754 mmHg 61%
15:00 +33°C° 0.1 mm 1 m/s 753 mmHg 64%
16:00 +34°C° 0.1 mm 2 m/s 753 mmHg 68%
17:00 +31°C° 0.4 mm 2 m/s 754 mmHg 72%
18:00 +30°C° 0.4 mm 3 m/s 754 mmHg 77%
19:00 +29°C° 0.4 mm 3 m/s 755 mmHg 82%
20:00 +29°C° 0 mm 3 m/s 755 mmHg 83%
21:00 +29°C° 0 mm 4 m/s 756 mmHg 84%
22:00 +29°C° 0 mm 4 m/s 756 mmHg 85%
23:00 +28°C° 0.1 mm 3 m/s 756 mmHg 87%

24 Outubro, Sábado

Tempo Temperatura Precipitação Vento Pressão Humidade
00:00 +28°C° 0.1 mm 3 m/s 755 mmHg 88%
01:00 +28°C° 0.1 mm 2 m/s 755 mmHg 90%
02:00 +27°C° 0.3 mm 2 m/s 755 mmHg 90%
03:00 +27°C° 0.3 mm 2 m/s 755 mmHg 91%
04:00 +27°C° 0.3 mm 1 m/s 755 mmHg 91%
05:00 +27°C° 0.2 mm 1 m/s 756 mmHg 89%
06:00 +28°C° 0.2 mm 2 m/s 756 mmHg 86%
07:00 +28°C° 0.2 mm 2 m/s 756 mmHg 84%
08:00 +30°C° 0.8 mm 2 m/s 757 mmHg 78%
09:00 +31°C° 0.8 mm 2 m/s 757 mmHg 73%
10:00 +34°C° 0.8 mm 3 m/s 757 mmHg 67%
11:00 +35°C° 0.2 mm 2 m/s 756 mmHg 64%
12:00 +35°C° 0.2 mm 2 m/s 755 mmHg 60%
13:00 +35°C° 0.2 mm 1 m/s 754 mmHg 56%
14:00 +34°C° 0.2 mm 1 m/s 754 mmHg 59%
15:00 +34°C° 0.2 mm 1 m/s 753 mmHg 63%
16:00 +33°C° 0.2 mm 1 m/s 753 mmHg 66%
17:00 +32°C° 0.1 mm 2 m/s 754 mmHg 70%
18:00 +31°C° 0.1 mm 3 m/s 754 mmHg 75%
19:00 +29°C° 0.1 mm 4 m/s 755 mmHg 79%
20:00 +29°C° 0.1 mm 3 m/s 755 mmHg 81%
21:00 +29°C° 0.1 mm 3 m/s 755 mmHg 82%
22:00 +29°C° 0.1 mm 3 m/s 756 mmHg 84%
23:00 +28°C° 1.1 mm 3 m/s 756 mmHg 86%

25 Outubro, Domingo

Tempo Temperatura Precipitação Vento Pressão Humidade
00:00 +28°C° 1.1 mm 3 m/s 755 mmHg 88%
01:00 +27°C° 1.1 mm 3 m/s 755 mmHg 90%
02:00 +27°C° 0.8 mm 3 m/s 755 mmHg 89%
03:00 +27°C° 0.8 mm 3 m/s 755 mmHg 89%
04:00 +27°C° 0.8 mm 3 m/s 755 mmHg 88%
05:00 +27°C° 0.4 mm 3 m/s 756 mmHg 87%
06:00 +28°C° 0.4 mm 3 m/s 756 mmHg 86%
07:00 +28°C° 0.4 mm 2 m/s 757 mmHg 85%
08:00 +29°C° 0.5 mm 2 m/s 757 mmHg 80%
09:00 +31°C° 0.5 mm 2 m/s 758 mmHg 74%
10:00 +32°C° 0.5 mm 2 m/s 758 mmHg 68%
11:00 +32°C° 1.1 mm 2 m/s 757 mmHg 67%
12:00 +34°C° 1.1 mm 2 m/s 756 mmHg 66%
13:00 +34°C° 1.1 mm 2 m/s 755 mmHg 66%
14:00 +32°C° 2 mm 2 m/s 755 mmHg 71%
15:00 +31°C° 2 mm 2 m/s 755 mmHg 76%
16:00 +30°C° 2 mm 2 m/s 754 mmHg 81%
17:00 +29°C° 0.9 mm 2 m/s 755 mmHg 83%
18:00 +29°C° 0.9 mm 2 m/s 755 mmHg 84%
19:00 +28°C° 0.9 mm 1 m/s 756 mmHg 86%
20:00 +28°C° 0.8 mm 2 m/s 756 mmHg 86%
21:00 +28°C° 0.8 mm 2 m/s 756 mmHg 87%
22:00 +27°C° 0.8 mm 2 m/s 757 mmHg 88%
23:00 +27°C° 0.5 mm 2 m/s 756 mmHg 88%

26 Outubro, Segunda-feira

Tempo Temperatura Precipitação Vento Pressão Humidade
00:00 +27°C° 0.5 mm 1 m/s 756 mmHg 89%
01:00 +27°C° 0.5 mm 1 m/s 756 mmHg 90%
02:00 +26°C° 0.3 mm 1 m/s 756 mmHg 90%
03:00 +26°C° 0.3 mm 1 m/s 756 mmHg 91%
04:00 +26°C° 0.3 mm 2 m/s 756 mmHg 92%
05:00 +26°C° 0 mm 1 m/s 756 mmHg 90%
06:00 +27°C° 0 mm 1 m/s 757 mmHg 88%
07:00 +27°C° 0 mm 1 m/s 757 mmHg 86%
08:00 +29°C° 0.2 mm 1 m/s 757 mmHg 80%
09:00 +30°C° 0.2 mm 1 m/s 757 mmHg 74%
10:00 +32°C° 0.2 mm 2 m/s 758 mmHg 67%
11:00 +34°C° 0 mm 2 m/s 757 mmHg 65%
12:00 +33°C° 0 mm 1 m/s 756 mmHg 63%
13:00 +34°C° 0 mm 1 m/s 755 mmHg 60%
14:00 +34°C° 0.4 mm 2 m/s 754 mmHg 66%
15:00 +33°C° 0.4 mm 3 m/s 754 mmHg 71%
16:00 +31°C° 0.4 mm 3 m/s 754 mmHg 76%
17:00 +30°C° 0.6 mm 3 m/s 755 mmHg 77%
18:00 +29°C° 0.6 mm 4 m/s 755 mmHg 79%
19:00 +28°C° 0.6 mm 4 m/s 756 mmHg 81%
20:00 +28°C° 0.3 mm 5 m/s 756 mmHg 81%
21:00 +28°C° 0.3 mm 5 m/s 756 mmHg 82%
22:00 +28°C° 0.3 mm 5 m/s 756 mmHg 83%
23:00 +28°C° 0.4 mm 4 m/s 756 mmHg 83%
Mostrar mais